パンスターズ彗星

C/2021 S3 ( PanSTARRS )

English version
Home page
Updated on November 26, 2022

---------------------------------------------------------------------

・ プロフィール

発見日 2021年9月24日
発見光度 20.1等
発見者 Pan-STARRS 2 telescope (Haleakala)

・ 写真集

・ 軌道要素

Epoch 2022 Aug. 9.0 TT = JDT 2459800.5
T 2024 Feb. 14.76869 TT                                 Rudenko
q   1.3193062            (2000.0)            P               Q
z  +0.0001010      Peri.    6.89331     -0.77042647     +0.39941981
 +/-0.0000165      Node   215.62998     -0.61805287     -0.65911486
e   0.9998668      Incl.   58.53637     -0.15637681     +0.63720594
From 176 observations 2020 Dec. 6-2022 Sept. 4, mean residual 0".5.

・ 星図

・ 光度変化

        m1 = 5.0 + 5 logΔ + 10.0 log r

---------------------------------------------------------------------

軌道要素はM.P.E.C. 2022-R139に掲載されたものです。
星図はステラナビゲータ Ver.10 (アストロアーツ) で作成したものです。
光度グラフはComet for Windowsで作成したものです。

---------------------------------------------------------------------

Copyright(C) Seiichi Yoshida (comet@aerith.net). All rights reserved.